KC7RJK-2 Weather Reports


Display with metric or nautical units.
time (UTC)temp
F
wind
direction
speed
MPH
gust
MPH
rain 1hr
in
rain 24hr
in
rain mn
in
humidity
%
barometer
mb
20170530030309 62 273 8.0 15.0 0.00 0.00 0.00 77 1015.1
20170530025309 64 277 10.0 15.0 0.00 0.00 0.00 75 1014.9
20170530024309 65 248 10.0 14.0 0.00 0.00 0.00 74 1014.7
20170530023308 66 262 5.0 14.0 0.00 0.00 0.00 72 1014.5
20170530022308 68 254 14.0 14.0 0.00 0.00 0.00 71 1014.4
20170530021308 69 246 3.0 11.0 0.00 0.00 0.00 68 1014.2
20170530020308 71 33 2.0 4.0 0.00 0.00 0.00 69 1013.8
20170530015308 71 337 2.0 6.0 0.00 0.00 0.00 70 1013.6
20170530014309 72 1 0.0 7.0 0.00 0.00 0.00 69 1013.6
20170530013309 72 38 3.0 5.0 0.00 0.00 0.00 67 1013.9
20170530012308 72 358 0.0 3.0 0.00 0.00 0.00 69 1013.9
20170530011308 72 358 2.0 4.0 0.00 0.00 0.00 67 1014.2
20170530010308 72 339 5.0 5.0 0.00 0.00 0.00 68 1014.2
20170530005308 72 85 0.0 3.0 0.00 0.00 0.00 71 1014.3
20170530004308 72 354 0.0 0.0 0.00 0.00 0.00 69 1014.5
20170530003308 72 352 0.0 3.0 0.00 0.00 0.00 66 1014.5
20170530002308 71 263 0.0 5.0 0.00 0.00 0.00 70 1014.6
20170530001308 71 52 0.0 4.0 0.00 0.00 0.00 68 1014.6
20170530000308 71 324 2.0 6.0 0.00 0.00 0.00 67 1014.7
20170529235308 71 12 2.0 4.0 0.00 0.00 0.00 71 1014.6
20170529234308 70 17 0.0 4.0 0.00 0.00 0.00 68 1014.6
20170529233308 69 12 0.0 5.0 0.00 0.00 0.00 69 1014.9
20170529232308 70 347 3.0 5.0 0.00 0.00 0.00 70 1014.9
20170529231308 69 320 3.0 5.0 0.00 0.00 0.00 74 1015.0
20170529230308 69 302 3.0 5.0 0.00 0.00 0.00 73 1015.1
20170529225308 68 12 5.0 5.0 0.00 0.00 0.00 75 1015.2
20170529224308 67 90 0.0 3.0 0.00 0.00 0.00 74 1015.3
20170529223308 66 44 2.0 3.0 0.00 0.00 0.00 76 1015.5
20170529222308 65 66 0.0 3.0 0.00 0.00 0.00 78 1015.8
20170529221308 66 359 0.0 4.0 0.00 0.00 0.00 75 1015.9
20170529220308 64 322 3.0 3.0 0.00 0.00 0.00 76 1016.1
20170529215308 64 347 2.0 3.0 0.00 0.00 0.00 76 1016.3
20170529214308 64 351 2.0 3.0 0.00 0.00 0.00 77 1016.3
20170529213308 64 270 1.0 4.0 0.00 0.00 0.00 75 1016.4
20170529212308 64 261 3.0 5.0 0.00 0.00 0.00 77 1016.4
20170529211308 63 328 1.0 4.0 0.00 0.00 0.00 76 1016.5
20170529210308 63 253 3.0 5.0 0.00 0.00 0.00 77 1016.6
20170529205308 64 298 0.0 5.0 0.00 0.00 0.00 76 1016.7
20170529204308 64 310 5.0 6.0 0.00 0.00 0.00 78 1016.8
20170529203308 63 248 3.0 6.0 0.00 0.00 0.00 79 1016.9
20170529202308 62 316 1.0 4.0 0.00 0.00 0.00 77 1016.9
20170529201308 62 249 3.0 4.0 0.00 0.00 0.00 78 1017.0
20170529200308 62 291 5.0 5.0 0.00 0.00 0.00 79 1017.0
20170529195308 62 251 3.0 3.0 0.00 0.00 0.00 77 1017.1
20170529194308 62 208 3.0 4.0 0.00 0.00 0.00 80 1017.2
20170529193308 61 258 2.0 4.0 0.00 0.00 0.00 84 1017.3
20170529192308 60 321 0.0 0.0 0.00 0.00 0.00 82 1017.4
20170529191308 60 314 0.0 3.0 0.00 0.00 0.00 81 1017.4
20170529190308 59 261 0.0 4.0 0.00 0.00 0.00 82 1017.5
20170529185308 59 300 1.0 4.0 0.00 0.00 0.00 82 1017.5
20170529184308 59 256 2.0 3.0 0.00 0.00 0.00 84 1017.5
20170529183307 58 229 0.0 3.0 0.00 0.00 0.00 86 1017.5
20170529182308 58 249 3.0 4.0 0.00 0.00 0.00 87 1017.5
20170529181307 57 249 1.0 3.0 0.00 0.00 0.00 87 1017.6
20170529180308 57 249 0.0 3.0 0.00 0.00 0.00 88 1017.6
20170529175307 56 249 0.0 3.0 0.00 0.00 0.00 88 1017.6
20170529174308 56 237 0.0 4.0 0.00 0.00 0.00 89 1017.7
20170529173307 56 229 3.0 5.0 0.00 0.00 0.00 88 1017.8
20170529172307 56 256 4.0 5.0 0.00 0.00 0.00 90 1017.8
20170529171308 55 237 2.0 4.0 0.00 0.00 0.00 90 1017.9
20170529170307 55 238 2.0 5.0 0.00 0.00 0.00 92 1018.0
20170529165307 55 239 4.0 6.0 0.00 0.00 0.00 93 1018.0
20170529164308 55 232 2.0 5.0 0.00 0.00 0.00 93 1018.0
20170529163308 54 260 2.0 6.0 0.00 0.00 0.00 93 1018.1
20170529162307 54 244 5.0 6.0 0.00 0.00 0.00 93 1018.1
20170529161307 54 237 5.0 5.0 0.00 0.00 0.00 93 1018.1
20170529160307 54 239 3.0 5.0 0.00 0.00 0.00 93 1018.1
20170529155307 54 222 3.0 5.0 0.00 0.00 0.00 93 1018.0
20170529154307 54 229 1.0 5.0 0.00 0.00 0.00 94 1018.0
20170529153307 54 213 3.0 5.0 0.00 0.00 0.00 93 1018.1
20170529152307 53 214 1.0 5.0 0.00 0.00 0.00 93 1018.1
20170529151307 53 217 3.0 4.0 0.00 0.00 0.00 93 1018.1
20170529150307 53 221 3.0 4.0 0.00 0.00 0.00 93 1018.2
20170529145307 53 233 0.0 4.0 0.00 0.00 0.00 92 1018.1
20170529144307 53 224 0.0 4.0 0.00 0.00 0.00 92 1018.2
20170529143307 53 213 3.0 5.0 0.00 0.00 0.00 92 1018.3
20170529142307 53 233 1.0 5.0 0.00 0.00 0.00 92 1018.2
20170529141307 53 214 4.0 4.0 0.00 0.00 0.00 92 1018.3
20170529140307 53 223 0.0 3.0 0.00 0.00 0.00 92 1018.4
20170529135307 53 208 2.0 5.0 0.00 0.00 0.00 92 1018.3
20170529134307 53 219 3.0 4.0 0.00 0.00 0.00 92 1018.4
20170529133307 53 223 3.0 4.0 0.00 0.00 0.00 91 1018.5
20170529132307 53 232 3.0 5.0 0.00 0.00 0.00 91 1018.5
20170529131307 53 237 3.0 3.0 0.00 0.00 0.00 91 1018.4
20170529130307 53 194 0.0 0.0 0.00 0.00 0.00 91 1018.3
20170529125307 53 221 0.0 0.0 0.00 0.00 0.00 91 1018.3
20170529124307 53 215 0.0 0.0 0.00 0.00 0.00 91 1018.3
20170529123307 53 212 0.0 3.0 0.00 0.00 0.00 91 1018.3
20170529122307 53 220 2.0 3.0 0.00 0.00 0.00 91 1018.3
20170529121307 53 217 3.0 3.0 0.00 0.00 0.00 91 1018.4
20170529120307 53 216 3.0 5.0 0.00 0.00 0.00 91 1018.5
20170529115307 53 208 2.0 6.0 0.00 0.00 0.00 90 1018.5
20170529114307 53 212 4.0 6.0 0.00 0.00 0.00 90 1018.6
20170529113307 53 223 1.0 5.0 0.00 0.00 0.00 90 1018.5
20170529112307 53 218 3.0 5.0 0.00 0.00 0.00 90 1018.4
20170529111307 53 208 2.0 4.0 0.00 0.00 0.00 90 1018.3
20170529110307 53 217 0.0 4.0 0.00 0.00 0.00 90 1018.4
20170529105307 53 220 3.0 5.0 0.00 0.00 0.00 90 1018.5
20170529104307 53 206 1.0 3.0 0.00 0.00 0.00 90 1018.4
20170529103307 53 202 2.0 5.0 0.00 0.00 0.00 90 1018.6
20170529102307 53 176 4.0 6.0 0.00 0.00 0.00 90 1018.5
20170529101307 53 200 3.0 5.0 0.00 0.00 0.00 90 1018.5
20170529100307 53 206 2.0 6.0 0.00 0.00 0.00 90 1018.5
20170529095307 53 232 3.0 5.0 0.00 0.00 0.00 90 1018.6
20170529094307 53 209 3.0 4.0 0.00 0.00 0.00 90 1018.6
20170529093306 53 231 0.0 3.0 0.00 0.00 0.00 90 1018.6
20170529092307 53 204 3.0 5.0 0.00 0.00 0.00 90 1018.6
20170529091307 53 217 1.0 5.0 0.00 0.00 0.00 90 1018.6
20170529090307 53 216 4.0 6.0 0.00 0.00 0.00 90 1018.7
20170529085306 53 212 3.0 5.0 0.00 0.00 0.00 90 1018.7
20170529084307 53 252 3.0 5.0 0.00 0.00 0.00 90 1018.8
20170529083307 54 228 3.0 5.0 0.00 0.00 0.00 90 1018.9
20170529082307 54 210 4.0 6.0 0.00 0.00 0.00 90 1018.9
20170529081306 54 228 5.0 5.0 0.00 0.00 0.00 90 1019.1
20170529080306 53 213 3.0 6.0 0.00 0.00 0.00 89 1019.0
20170529075306 53 227 6.0 8.0 0.00 0.00 0.00 90 1019.0
20170529074307 53 211 3.0 7.0 0.00 0.00 0.00 90 1019.0
20170529073306 53 235 5.0 7.0 0.00 0.00 0.00 90 1019.0
20170529072307 53 215 3.0 6.0 0.00 0.00 0.00 90 1019.0
20170529071306 53 219 3.0 6.0 0.00 0.00 0.00 89 1019.1
20170529070306 53 214 1.0 8.0 0.00 0.00 0.00 89 1019.1
20170529065306 53 214 4.0 6.0 0.00 0.00 0.00 89 1019.0
20170529064307 53 208 4.0 6.0 0.00 0.00 0.00 88 1019.1
20170529063306 53 204 3.0 9.0 0.00 0.00 0.00 88 1019.2
20170529062306 54 249 4.0 7.0 0.00 0.00 0.00 88 1019.2
20170529061306 54 237 4.0 8.0 0.00 0.00 0.00 87 1019.1
20170529060306 54 223 3.0 8.0 0.00 0.00 0.00 87 1019.2
20170529055306 54 236 1.0 7.0 0.00 0.00 0.00 86 1019.1
20170529054306 54 233 3.0 9.0 0.00 0.00 0.00 85 1019.1
20170529053306 55 250 0.0 11.0 0.00 0.00 0.00 85 1019.0
20170529052306 55 244 8.0 10.0 0.00 0.00 0.00 84 1019.0
20170529051306 56 235 4.0 9.0 0.00 0.00 0.00 83 1018.9
20170529050306 56 244 4.0 13.0 0.00 0.00 0.00 82 1018.8
20170529045306 56 258 7.0 11.0 0.00 0.00 0.00 81 1018.7
20170529044306 57 248 10.0 11.0 0.00 0.00 0.00 80 1018.6
20170529043306 58 251 7.0 10.0 0.00 0.00 0.00 79 1018.4
20170529042306 59 252 4.0 11.0 0.00 0.00 0.00 77 1018.4
20170529041306 60 246 7.0 12.0 0.00 0.00 0.00 77 1018.2
20170529040306 60 244 3.0 10.0 0.00 0.00 0.00 77 1018.0
20170529035306 61 246 8.0 11.0 0.00 0.00 0.00 76 1017.9
20170529034306 62 266 6.0 14.0 0.00 0.00 0.00 74 1017.8
20170529033306 63 244 7.0 13.0 0.00 0.00 0.00 73 1017.7
20170529032306 64 254 4.0 12.0 0.00 0.00 0.00 72 1017.7
20170529031306 64 253 10.0 11.0 0.00 0.00 0.00 72 1017.6